| time (UTC) | temp F | wind direction | speed MPH | gust MPH | rain 1hr in | rain 24hr in | rain mn in | humidity % | barometer mb |
| 20260504000104 | 67 | 255 | 5.0 | 11.0 | 0.00 | 0.00 | 0.00 | 40 | 1003.4 |
| 20260503234551 | 68 | 233 | 5.0 | 10.0 | 0.00 | 0.00 | 0.00 | 40 | 1003.4 |
| 20260503233055 | 68 | 235 | 4.0 | 18.0 | 0.00 | 0.00 | 0.00 | 40 | 1003.5 |
| 20260503231551 | 68 | 288 | 5.0 | 14.0 | 0.00 | 0.00 | 0.00 | 40 | 1003.6 |
| 20260503230110 | 68 | 242 | 8.0 | 13.0 | 0.00 | 0.00 | 0.00 | 40 | 1003.6 |
| 20260503224554 | 68 | 250 | 7.0 | 17.0 | 0.00 | 0.00 | 0.00 | 39 | 1003.8 |
| 20260503223109 | 67 | 235 | 7.0 | 17.0 | 0.00 | 0.00 | 0.00 | 40 | 1003.9 |
| 20260503221555 | 67 | 256 | 10.0 | 16.0 | 0.00 | 0.00 | 0.00 | 40 | 1004.1 |
| 20260503220054 | 67 | 243 | 8.0 | 19.0 | 0.00 | 0.00 | 0.00 | 41 | 1004.1 |
| 20260503214601 | 67 | 226 | 10.0 | 17.0 | 0.00 | 0.00 | 0.00 | 41 | 1004.0 |
| 20260503213056 | 66 | 243 | 7.0 | 23.0 | 0.00 | 0.00 | 0.00 | 42 | 1004.5 |
| 20260503211602 | 66 | 288 | 8.0 | 20.0 | 0.00 | 0.00 | 0.00 | 42 | 1004.5 |
| 20260503210052 | 65 | 270 | 8.0 | 16.0 | 0.00 | 0.00 | 0.00 | 43 | 1004.7 |
| 20260503204555 | 65 | 191 | 12.0 | 19.0 | 0.00 | 0.00 | 0.00 | 41 | 1005.0 |
| 20260503203057 | 65 | 261 | 11.0 | 17.0 | 0.00 | 0.00 | 0.00 | 41 | 1005.1 |
| 20260503201555 | 63 | 235 | 7.0 | 19.0 | 0.00 | 0.00 | 0.00 | 48 | 1005.3 |
| 20260503200057 | 63 | 292 | 13.0 | 21.0 | 0.00 | 0.00 | 0.00 | 49 | 1005.7 |
| 20260503194619 | 63 | 235 | 10.0 | 22.0 | 0.00 | 0.00 | 0.00 | 49 | 1006.0 |
| 20260503193052 | 62 | 249 | 11.0 | 23.0 | 0.00 | 0.00 | 0.00 | 48 | 1006.4 |
| 20260503191557 | 62 | 246 | 12.0 | 20.0 | 0.00 | 0.00 | 0.00 | 45 | 1006.4 |
| 20260503190052 | 63 | 218 | 10.0 | 26.0 | 0.00 | 0.00 | 0.00 | 45 | 1006.5 |
| 20260503184552 | 63 | 232 | 12.0 | 23.0 | 0.00 | 0.00 | 0.00 | 43 | 1006.6 |
| 20260503183104 | 63 | 132 | 9.0 | 23.0 | 0.00 | 0.00 | 0.00 | 44 | 1006.8 |
| 20260503181605 | 62 | 242 | 12.0 | 24.0 | 0.00 | 0.00 | 0.00 | 43 | 1006.9 |
| 20260503180054 | 61 | 274 | 12.0 | 20.0 | 0.00 | 0.00 | 0.00 | 45 | 1006.9 |
| 20260503174606 | 60 | 242 | 10.0 | 24.0 | 0.00 | 0.00 | 0.00 | 49 | 1007.4 |
| 20260503173105 | 59 | 162 | 9.0 | 18.0 | 0.00 | 0.00 | 0.00 | 52 | 1007.6 |
| 20260503171554 | 58 | 242 | 13.0 | 27.0 | 0.00 | 0.00 | 0.00 | 54 | 1008.0 |
| 20260503170103 | 56 | 238 | 11.0 | 20.0 | 0.00 | 0.00 | 0.00 | 56 | 1008.2 |
| 20260503120112 | 49 | 262 | 9.0 | 15.0 | 0.00 | 0.01 | 0.00 | 54 | 1010.7 |
| 20260503081555 | 47 | 255 | 4.0 | 9.0 | 0.00 | 0.01 | 0.00 | 54 | 1011.9 |
| 20260503071551 | 47 | 240 | 4.0 | 11.0 | 0.00 | 0.01 | 0.00 | 53 | 1012.0 |
| 20260503054551 | 47 | 247 | 4.0 | 9.0 | 0.00 | 0.01 | 0.00 | 53 | 1012.8 |
| 20260503053053 | 47 | 249 | 4.0 | 8.0 | 0.00 | 0.01 | 0.00 | 53 | 1012.9 |
| 20260503051555 | 47 | 245 | 5.0 | 10.0 | 0.00 | 0.01 | 0.00 | 52 | 1013.0 |
| 20260503050058 | 47 | 239 | 4.0 | 7.0 | 0.00 | 0.01 | 0.00 | 53 | 1013.0 |
| 20260503044611 | 48 | 273 | 4.0 | 9.0 | 0.00 | 0.01 | 0.01 | 52 | 1013.1 |
| 20260503043058 | 48 | 259 | 5.0 | 8.0 | 0.00 | 0.01 | 0.01 | 51 | 1013.2 |
| 20260503041610 | 48 | 260 | 4.0 | 7.0 | 0.00 | 0.01 | 0.01 | 52 | 1013.3 |
| 20260503040057 | 48 | 232 | 3.0 | 8.0 | 0.00 | 0.01 | 0.01 | 51 | 1013.3 |
| 20260503034555 | 48 | 200 | 4.0 | 8.0 | 0.00 | 0.01 | 0.01 | 51 | 1013.5 |
| 20260503033114 | 48 | 260 | 3.0 | 7.0 | 0.00 | 0.01 | 0.01 | 52 | 1013.5 |
| 20260503031553 | 49 | 259 | 4.0 | 11.0 | 0.00 | 0.01 | 0.01 | 51 | 1013.6 |
| 20260503030100 | 49 | 243 | 3.0 | 7.0 | 0.00 | 0.01 | 0.01 | 51 | 1013.8 |
| 20260503024601 | 50 | 236 | 3.0 | 5.0 | 0.00 | 0.01 | 0.01 | 51 | 1013.9 |
| 20260503023056 | 50 | 252 | 3.0 | 6.0 | 0.00 | 0.01 | 0.01 | 49 | 1013.9 |
| 20260503021557 | 50 | 243 | 3.0 | 5.0 | 0.00 | 0.01 | 0.01 | 50 | 1013.9 |
| 20260503020056 | 51 | 237 | 2.0 | 6.0 | 0.00 | 0.01 | 0.01 | 47 | 1013.7 |
| 20260503014552 | 51 | 232 | 2.0 | 4.0 | 0.00 | 0.01 | 0.01 | 47 | 1013.6 |
| 20260503013049 | 52 | 228 | 3.0 | 4.0 | 0.00 | 0.01 | 0.01 | 45 | 1013.5 |
| 20260503011601 | 52 | 248 | 2.0 | 4.0 | 0.00 | 0.01 | 0.01 | 44 | 1013.5 |
| 20260503010107 | 53 | 238 | 2.0 | 3.0 | 0.00 | 0.01 | 0.01 | 41 | 1013.5 |
| 20260503004552 | 54 | 248 | 2.0 | 4.0 | 0.00 | 0.01 | 0.01 | 40 | 1013.6 |
| 20260503003106 | 55 | 235 | 2.0 | 4.0 | 0.00 | 0.01 | 0.01 | 39 | 1013.5 |
| 20260503001550 | 55 | 259 | 3.0 | 6.0 | 0.00 | 0.01 | 0.01 | 37 | 1013.6 |